Location: Unspecified
(43.1763°N, 79.4719°W)
Time: 19:05:58
(UTC-04:00)

Cosmos 1674 - Visible Passes

Search period start: 20 August 2017 00:00
Search period end: 30 August 2017 00:00
Orbit: 499 x 521 km, 82.5° (Epoch: 20 August)

Date Brightness Start Highest point End Pass type
(mag) Time Alt. Az. Time Alt. Az. Time Alt. Az.
20 Aug 5.7 02:09:21 10° NNW 02:09:47 13° NNW 02:09:47 13° NNW visible
21 Aug 5.8 01:52:38 10° NNW 01:53:04 13° NNW 01:53:04 13° NNW visible
22 Aug 5.9 01:35:59 10° N 01:36:22 12° N 01:36:22 12° N visible
23 Aug 6.0 01:19:20 10° N 01:19:40 12° N 01:19:40 12° N visible
24 Aug 6.0 01:02:43 10° N 01:02:58 11° N 01:02:58 11° N visible
25 Aug 6.0 00:46:10 10° N 00:46:17 11° N 00:46:17 11° N visible
